| time (UTC) | temp F | wind direction | speed MPH | gust MPH | rain 1hr in | rain 24hr in | rain mn in | humidity % | barometer mb |
| 20260505062006 | 59 | 187 | 1.0 | 10.0 | 0.00 | 0.00 | 0.00 | 73 | 1010.0 |
| 20260505061539 | 59 | 194 | 2.0 | 8.0 | 0.00 | 0.00 | 0.00 | 73 | 1010.0 |
| 20260505061009 | 59 | 192 | 2.0 | 5.0 | 0.00 | 0.00 | 0.00 | 73 | 1010.0 |
| 20260505060510 | 59 | 184 | 0.0 | 5.0 | 0.00 | 0.00 | 0.00 | 74 | 1009.7 |
| 20260505060018 | 59 | 219 | 1.0 | 9.0 | 0.00 | 0.00 | 0.00 | 73 | 1009.7 |
| 20260505055513 | 59 | 147 | 1.0 | 9.0 | 0.00 | 0.00 | 0.00 | 74 | 1009.7 |
| 20260505055015 | 59 | 164 | 1.0 | 7.0 | 0.00 | 0.00 | 0.00 | 74 | 1009.7 |
| 20260505054518 | 59 | 197 | 2.0 | 7.0 | 0.00 | 0.00 | 0.00 | 74 | 1009.7 |
| 20260505054012 | 60 | 219 | 2.0 | 6.0 | 0.00 | 0.00 | 0.00 | 73 | 1009.7 |
| 20260505053509 | 60 | 190 | 2.0 | 6.0 | 0.00 | 0.00 | 0.00 | 73 | 1009.7 |
| 20260505053015 | 60 | 223 | 1.0 | 8.0 | 0.00 | 0.00 | 0.00 | 73 | 1009.7 |
| 20260505052505 | 60 | 82 | 1.0 | 8.0 | 0.00 | 0.00 | 0.00 | 73 | 1009.7 |
| 20260505052011 | 60 | 186 | 1.0 | 6.0 | 0.00 | 0.00 | 0.00 | 74 | 1009.6 |
| 20260505051520 | 60 | 106 | 1.0 | 6.0 | 0.00 | 0.00 | 0.00 | 74 | 1009.5 |
| 20260505051010 | 60 | 194 | 2.0 | 6.0 | 0.00 | 0.00 | 0.00 | 74 | 1009.5 |
| 20260505050506 | 61 | 232 | 2.0 | 8.0 | 0.00 | 0.00 | 0.00 | 74 | 1009.4 |
| 20260505041521 | 62 | 208 | 2.0 | 6.0 | 0.00 | 0.00 | 0.00 | 75 | 1009.2 |
| 20260505041010 | 62 | 200 | 2.0 | 7.0 | 0.00 | 0.00 | 0.00 | 75 | 1009.2 |
| 20260505040510 | 62 | 196 | 2.0 | 7.0 | 0.00 | 0.00 | 0.00 | 75 | 1009.1 |
| 20260505040018 | 62 | 186 | 1.0 | 5.0 | 0.00 | 0.00 | 0.00 | 76 | 1009.1 |
| 20260505035510 | 62 | 210 | 1.0 | 5.0 | 0.00 | 0.00 | 0.00 | 75 | 1009.1 |
| 20260505035011 | 62 | 217 | 1.0 | 5.0 | 0.00 | 0.00 | 0.00 | 75 | 1009.0 |
| 20260505034522 | 62 | 224 | 2.0 | 7.0 | 0.00 | 0.00 | 0.00 | 74 | 1008.9 |
| 20260505034011 | 62 | 229 | 2.0 | 7.0 | 0.00 | 0.00 | 0.00 | 74 | 1008.8 |
| 20260505033506 | 63 | 207 | 0.0 | 6.0 | 0.00 | 0.00 | 0.00 | 73 | 1008.8 |
| 20260505033021 | 63 | 167 | 1.0 | 5.0 | 0.00 | 0.00 | 0.00 | 72 | 1008.8 |
| 20260505032506 | 64 | 220 | 2.0 | 5.0 | 0.00 | 0.00 | 0.00 | 71 | 1008.7 |
| 20260505032007 | 64 | 178 | 1.0 | 5.0 | 0.00 | 0.00 | 0.00 | 69 | 1008.7 |
| 20260505031537 | 65 | 217 | 2.0 | 5.0 | 0.00 | 0.00 | 0.00 | 66 | 1008.6 |
| 20260505031011 | 66 | 234 | 1.0 | 5.0 | 0.00 | 0.00 | 0.00 | 63 | 1008.5 |
| 20260505030508 | 67 | 228 | 2.0 | 5.0 | 0.00 | 0.00 | 0.00 | 61 | 1008.4 |
| 20260505030018 | 68 | 219 | 0.0 | 3.0 | 0.00 | 0.00 | 0.00 | 56 | 1008.4 |
| 20260505025509 | 69 | 213 | 1.0 | 3.0 | 0.00 | 0.00 | 0.00 | 53 | 1008.3 |
| 20260505025008 | 70 | 182 | 1.0 | 4.0 | 0.00 | 0.00 | 0.00 | 50 | 1008.3 |
| 20260505024532 | 71 | 140 | 1.0 | 4.0 | 0.00 | 0.00 | 0.00 | 47 | 1008.5 |
| 20260505024007 | 71 | 173 | 0.0 | 4.0 | 0.00 | 0.00 | 0.00 | 45 | 1008.4 |
| 20260505023508 | 72 | 173 | 0.0 | 8.0 | 0.00 | 0.00 | 0.00 | 44 | 1008.4 |
| 20260505023020 | 72 | 105 | 2.0 | 8.0 | 0.00 | 0.00 | 0.00 | 43 | 1008.5 |
| 20260505022508 | 72 | 194 | 2.0 | 10.0 | 0.00 | 0.00 | 0.00 | 43 | 1008.5 |
| 20260505022003 | 71 | 107 | 1.0 | 10.0 | 0.00 | 0.00 | 0.00 | 46 | 1008.6 |
| 20260505021513 | 71 | 171 | 2.0 | 9.0 | 0.00 | 0.00 | 0.00 | 46 | 1008.6 |
| 20260505021006 | 71 | 176 | 4.0 | 11.0 | 0.00 | 0.00 | 0.00 | 46 | 1008.7 |
| 20260505020503 | 71 | 194 | 3.0 | 11.0 | 0.00 | 0.00 | 0.00 | 45 | 1008.7 |
| 20260505020025 | 71 | 140 | 4.0 | 11.0 | 0.00 | 0.00 | 0.00 | 44 | 1008.8 |
| 20260505015508 | 71 | 200 | 4.0 | 13.0 | 0.00 | 0.00 | 0.00 | 45 | 1008.7 |
| 20260505015003 | 71 | 88 | 4.0 | 13.0 | 0.00 | 0.00 | 0.00 | 45 | 1008.8 |
| 20260505014510 | 71 | 169 | 5.0 | 11.0 | 0.00 | 0.00 | 0.00 | 46 | 1008.8 |
| 20260505014002 | 71 | 148 | 3.0 | 8.0 | 0.00 | 0.00 | 0.00 | 46 | 1008.8 |
| 20260505013504 | 71 | 158 | 2.0 | 9.0 | 0.00 | 0.00 | 0.00 | 46 | 1008.8 |
| 20260505013004 | 71 | 161 | 4.0 | 9.0 | 0.00 | 0.00 | 0.00 | 46 | 1008.9 |
| 20260505012502 | 71 | 142 | 3.0 | 9.0 | 0.00 | 0.00 | 0.00 | 46 | 1008.9 |
| 20260505012004 | 71 | 296 | 3.0 | 10.0 | 0.00 | 0.00 | 0.00 | 48 | 1008.9 |
| 20260505011504 | 71 | 236 | 4.0 | 11.0 | 0.00 | 0.00 | 0.00 | 48 | 1008.9 |
| 20260505011004 | 71 | 161 | 3.0 | 11.0 | 0.00 | 0.00 | 0.00 | 48 | 1009.0 |
| 20260505010508 | 72 | 124 | 2.0 | 10.0 | 0.00 | 0.00 | 0.00 | 49 | 1009.0 |
| 20260505010004 | 72 | 234 | 3.0 | 10.0 | 0.00 | 0.00 | 0.00 | 47 | 1009.0 |
| 20260505005503 | 72 | 119 | 4.0 | 9.0 | 0.00 | 0.00 | 0.00 | 49 | 1009.0 |
| 20260505005006 | 73 | 104 | 3.0 | 11.0 | 0.00 | 0.00 | 0.00 | 49 | 1009.0 |
| 20260505004540 | 73 | 55 | 4.0 | 11.0 | 0.00 | 0.00 | 0.00 | 48 | 1009.0 |
| 20260505004003 | 73 | 208 | 3.0 | 10.0 | 0.00 | 0.00 | 0.00 | 48 | 1009.1 |
| 20260505003502 | 73 | 207 | 4.0 | 10.0 | 0.00 | 0.00 | 0.00 | 49 | 1009.1 |
| 20260505003008 | 73 | 188 | 2.0 | 10.0 | 0.00 | 0.00 | 0.00 | 49 | 1009.0 |
| 20260505002509 | 73 | 164 | 3.0 | 9.0 | 0.00 | 0.00 | 0.00 | 52 | 1009.1 |
| 20260505002007 | 73 | 202 | 4.0 | 9.0 | 0.00 | 0.00 | 0.00 | 50 | 1009.1 |
| 20260505001512 | 73 | 181 | 5.0 | 10.0 | 0.00 | 0.00 | 0.00 | 49 | 1009.2 |
| 20260505001007 | 73 | 198 | 5.0 | 10.0 | 0.00 | 0.00 | 0.00 | 49 | 1009.3 |
| 20260505000503 | 73 | 211 | 5.0 | 9.0 | 0.00 | 0.00 | 0.00 | 50 | 1009.3 |
| 20260505000026 | 73 | 112 | 4.0 | 8.0 | 0.00 | 0.00 | 0.00 | 50 | 1009.2 |
| 20260504235506 | 74 | 165 | 3.0 | 8.0 | 0.00 | 0.00 | 0.00 | 48 | 1009.2 |
| 20260504235004 | 74 | 220 | 4.0 | 8.0 | 0.00 | 0.00 | 0.00 | 50 | 1009.3 |
| 20260504234507 | 74 | 207 | 4.0 | 8.0 | 0.00 | 0.00 | 0.00 | 47 | 1009.2 |
| 20260504234003 | 74 | 208 | 3.0 | 8.0 | 0.00 | 0.00 | 0.00 | 49 | 1009.5 |
| 20260504233504 | 74 | 204 | 2.0 | 8.0 | 0.00 | 0.00 | 0.00 | 46 | 1009.4 |
| 20260504233003 | 75 | 178 | 4.0 | 9.0 | 0.00 | 0.00 | 0.00 | 45 | 1009.4 |
| 20260504232507 | 75 | 146 | 3.0 | 9.0 | 0.00 | 0.00 | 0.00 | 44 | 1009.3 |
| 20260504232007 | 75 | 174 | 3.0 | 8.0 | 0.00 | 0.00 | 0.00 | 45 | 1009.3 |
| 20260504231516 | 75 | 190 | 4.0 | 8.0 | 0.00 | 0.00 | 0.00 | 45 | 1009.4 |
| 20260504231004 | 75 | 222 | 4.0 | 8.0 | 0.00 | 0.00 | 0.00 | 45 | 1009.5 |
| 20260504230504 | 75 | 219 | 3.0 | 8.0 | 0.00 | 0.00 | 0.00 | 47 | 1009.5 |
| 20260504230020 | 75 | 176 | 1.0 | 7.0 | 0.00 | 0.00 | 0.00 | 43 | 1009.6 |
| 20260504225504 | 75 | 219 | 3.0 | 6.0 | 0.00 | 0.00 | 0.00 | 43 | 1009.6 |
| 20260504225008 | 75 | 245 | 3.0 | 6.0 | 0.00 | 0.00 | 0.00 | 45 | 1009.6 |
| 20260504224509 | 74 | 257 | 2.0 | 6.0 | 0.00 | 0.00 | 0.00 | 43 | 1009.7 |
| 20260504224006 | 75 | 223 | 2.0 | 7.0 | 0.00 | 0.00 | 0.00 | 48 | 1009.8 |
| 20260504223504 | 74 | 201 | 2.0 | 7.0 | 0.00 | 0.00 | 0.00 | 47 | 1009.8 |
| 20260504223011 | 74 | 183 | 3.0 | 6.0 | 0.00 | 0.00 | 0.00 | 49 | 1009.9 |
| 20260504222504 | 74 | 240 | 1.0 | 8.0 | 0.00 | 0.00 | 0.00 | 47 | 1010.0 |
| 20260504222004 | 74 | 175 | 3.0 | 8.0 | 0.00 | 0.00 | 0.00 | 47 | 1010.0 |
| 20260504221510 | 74 | 242 | 3.0 | 7.0 | 0.00 | 0.00 | 0.00 | 51 | 1010.0 |
| 20260504221008 | 74 | 269 | 3.0 | 6.0 | 0.00 | 0.00 | 0.00 | 49 | 1009.9 |
| 20260504220507 | 73 | 236 | 2.0 | 9.0 | 0.00 | 0.00 | 0.00 | 49 | 1010.0 |
| 20260504220011 | 73 | 113 | 4.0 | 9.0 | 0.00 | 0.00 | 0.00 | 53 | 1010.0 |
| 20260504215504 | 73 | 199 | 1.0 | 7.0 | 0.00 | 0.00 | 0.00 | 52 | 1009.9 |
| 20260504215011 | 73 | 185 | 3.0 | 8.0 | 0.00 | 0.00 | 0.00 | 52 | 1010.0 |
| 20260504214508 | 73 | 207 | 4.0 | 8.0 | 0.00 | 0.00 | 0.00 | 53 | 1010.1 |
| 20260504214004 | 73 | 126 | 3.0 | 7.0 | 0.00 | 0.00 | 0.00 | 53 | 1010.1 |
| 20260504213505 | 72 | 214 | 2.0 | 7.0 | 0.00 | 0.00 | 0.00 | 51 | 1010.1 |
| 20260504213011 | 73 | 190 | 2.0 | 7.0 | 0.00 | 0.00 | 0.00 | 51 | 1010.2 |
| 20260504212506 | 73 | 165 | 2.0 | 6.0 | 0.00 | 0.00 | 0.00 | 53 | 1010.3 |
| 20260504212008 | 72 | 246 | 2.0 | 7.0 | 0.00 | 0.00 | 0.00 | 51 | 1010.3 |
| 20260504211519 | 72 | 207 | 2.0 | 9.0 | 0.00 | 0.00 | 0.00 | 49 | 1010.3 |
| 20260504211004 | 72 | 124 | 2.0 | 9.0 | 0.00 | 0.00 | 0.00 | 50 | 1010.3 |
| 20260504210504 | 72 | 225 | 3.0 | 8.0 | 0.00 | 0.00 | 0.00 | 50 | 1010.3 |
| 20260504210023 | 71 | 163 | 4.0 | 8.0 | 0.00 | 0.00 | 0.00 | 54 | 1010.3 |
| 20260504205507 | 71 | 242 | 3.0 | 8.0 | 0.00 | 0.00 | 0.00 | 52 | 1010.4 |
| 20260504205004 | 71 | 207 | 4.0 | 8.0 | 0.00 | 0.00 | 0.00 | 56 | 1010.4 |
| 20260504204510 | 71 | 221 | 4.0 | 8.0 | 0.00 | 0.00 | 0.00 | 57 | 1010.4 |
| 20260504204004 | 71 | 239 | 4.0 | 6.0 | 0.00 | 0.00 | 0.00 | 53 | 1010.4 |
| 20260504203505 | 71 | 248 | 3.0 | 7.0 | 0.00 | 0.00 | 0.00 | 56 | 1010.4 |
| 20260504203027 | 71 | 178 | 2.0 | 7.0 | 0.00 | 0.00 | 0.00 | 53 | 1010.4 |
| 20260504202012 | 72 | 141 | 1.0 | 7.0 | 0.00 | 0.00 | 0.00 | 56 | 1010.3 |
| 20260504201507 | 72 | 214 | 2.0 | 7.0 | 0.00 | 0.00 | 0.00 | 54 | 1010.4 |
| 20260504201005 | 72 | 169 | 2.0 | 7.0 | 0.00 | 0.00 | 0.00 | 58 | 1010.4 |
| 20260504200509 | 71 | 259 | 2.0 | 5.0 | 0.00 | 0.00 | 0.00 | 54 | 1010.5 |
| 20260504200020 | 71 | 155 | 3.0 | 8.0 | 0.00 | 0.00 | 0.00 | 56 | 1010.6 |
| 20260504195503 | 71 | 124 | 2.0 | 8.0 | 0.00 | 0.00 | 0.00 | 58 | 1010.6 |
| 20260504195003 | 71 | 224 | 4.0 | 7.0 | 0.00 | 0.00 | 0.00 | 58 | 1010.6 |
| 20260504194512 | 70 | 221 | 2.0 | 8.0 | 0.00 | 0.00 | 0.00 | 58 | 1010.6 |
| 20260504194005 | 70 | 137 | 2.0 | 8.0 | 0.00 | 0.00 | 0.00 | 60 | 1010.6 |
| 20260504193508 | 70 | 213 | 4.0 | 7.0 | 0.00 | 0.00 | 0.00 | 59 | 1010.6 |
| 20260504193019 | 70 | 176 | 3.0 | 7.0 | 0.00 | 0.00 | 0.00 | 61 | 1010.5 |
| 20260504192508 | 69 | 217 | 3.0 | 7.0 | 0.00 | 0.00 | 0.00 | 59 | 1010.4 |
| 20260504192006 | 70 | 205 | 2.0 | 7.0 | 0.00 | 0.00 | 0.00 | 58 | 1010.3 |
| 20260504191516 | 69 | 232 | 3.0 | 8.0 | 0.00 | 0.00 | 0.00 | 60 | 1010.4 |
| 20260504191006 | 69 | 170 | 1.0 | 8.0 | 0.00 | 0.00 | 0.00 | 59 | 1010.5 |
| 20260504190515 | 69 | 109 | 2.0 | 9.0 | 0.00 | 0.00 | 0.00 | 60 | 1010.6 |
| 20260504190014 | 69 | 209 | 4.0 | 9.0 | 0.00 | 0.00 | 0.00 | 62 | 1010.6 |
| 20260504185504 | 69 | 198 | 2.0 | 7.0 | 0.00 | 0.00 | 0.00 | 63 | 1010.6 |
| 20260504185006 | 69 | 202 | 3.0 | 7.0 | 0.00 | 0.00 | 0.00 | 61 | 1010.6 |
| 20260504184514 | 69 | 195 | 2.0 | 6.0 | 0.00 | 0.00 | 0.00 | 62 | 1010.6 |
| 20260504184003 | 69 | 216 | 1.0 | 7.0 | 0.00 | 0.00 | 0.00 | 65 | 1010.6 |
| 20260504183509 | 68 | 179 | 3.0 | 7.0 | 0.00 | 0.00 | 0.00 | 64 | 1010.6 |
| 20260504183022 | 68 | 200 | 3.0 | 8.0 | 0.00 | 0.00 | 0.00 | 65 | 1010.7 |
| 20260504182505 | 68 | 274 | 4.0 | 8.0 | 0.00 | 0.00 | 0.00 | 65 | 1010.6 |
| 20260504182011 | 68 | 169 | 3.0 | 7.0 | 0.00 | 0.00 | 0.00 | 66 | 1010.7 |
| 20260504181522 | 68 | 189 | 1.0 | 7.0 | 0.00 | 0.00 | 0.00 | 67 | 1010.7 |
| 20260504181003 | 67 | 236 | 3.0 | 8.0 | 0.00 | 0.00 | 0.00 | 67 | 1010.7 |
| 20260504180508 | 67 | 250 | 3.0 | 8.0 | 0.00 | 0.00 | 0.00 | 64 | 1010.7 |
| 20260504151006 | 56 | 17 | 0.0 | 0.0 | 0.00 | 0.00 | 0.00 | 79 | 1010.4 |
| 20260504150504 | 56 | 20 | 0.0 | 0.0 | 0.00 | 0.00 | 0.00 | 79 | 1010.4 |
| 20260504141011 | 51 | 17 | 0.0 | 0.0 | 0.00 | 0.00 | 0.00 | 90 | 1010.3 |
| 20260504140504 | 50 | 17 | 0.0 | 0.0 | 0.00 | 0.00 | 0.00 | 91 | 1010.3 |
| 20260504130503 | 49 | 17 | 0.0 | 0.0 | 0.00 | 0.00 | 0.00 | 91 | 1009.7 |
| 20260504110503 | 50 | 17 | 0.0 | 0.0 | 0.00 | 0.00 | 0.00 | 89 | 1009.7 |
| 20260504100503 | 50 | 5 | 0.0 | 0.0 | 0.00 | 0.00 | 0.00 | 89 | 1009.5 |
| 20260504081515 | 52 | 5 | 0.0 | 0.0 | 0.00 | 0.00 | 0.00 | 86 | 1009.4 |
| 20260504081004 | 53 | 5 | 0.0 | 0.0 | 0.00 | 0.00 | 0.00 | 86 | 1009.4 |
| 20260504080507 | 53 | 5 | 0.0 | 0.0 | 0.00 | 0.00 | 0.00 | 86 | 1009.4 |